When you browse on this site, cookies collect data to enhance your experience and personalize the content and advertising you see.
Visit our Privacy Policy to learn more. By continuing to use the site, you agree to this use of cookies and data.
  • In Romania
  • List of Countries
  • For 7 days
  • Water Temperature
  • Weather Map
  • Weather Widgets
  • user-avatar
    Login

    Hourly Weather Nizwa

    Today, 6 June, Saturday

    Time Temperature Precipitation Wind Pressure Humidity
    00:00 +35°C° 0 mm 1 mps 689 mmHg 18%
    01:00 +34°C° 0 mm 1 mps 689 mmHg 20%
    02:00 +34°C° 0 mm 1 mps 688 mmHg 21%
    03:00 +33°C° 0 mm 1 mps 688 mmHg 22%
    04:00 +32°C° 0 mm 1 mps 688 mmHg 23%
    05:00 +34°C° 0 mm 1 mps 689 mmHg 20%
    06:00 +36°C° 0 mm 2 mps 689 mmHg 17%
    07:00 +38°C° 0 mm 2 mps 690 mmHg 15%
    08:00 +40°C° 0 mm 3 mps 691 mmHg 12%
    09:00 +43°C° 0 mm 3 mps 691 mmHg 9%
    10:00 +45°C° 0 mm 4 mps 691 mmHg 8%
    11:00 +47°C° 0 mm 5 mps 691 mmHg 7%
    12:00 +47°C° 0 mm 5 mps 691 mmHg 6%
    13:00 +48°C° 0 mm 6 mps 690 mmHg 6%
    14:00 +49°C° 0 mm 7 mps 690 mmHg 6%
    15:00 +47°C° 0 mm 7 mps 689 mmHg 6%
    16:00 +48°C° 0 mm 8 mps 689 mmHg 6%
    17:00 +45°C° 0 mm 6 mps 689 mmHg 7%
    18:00 +43°C° 0 mm 4 mps 689 mmHg 8%
    19:00 +40°C° 0 mm 2 mps 689 mmHg 8%
    20:00 +39°C° 0 mm 2 mps 689 mmHg 9%
    21:00 +37°C° 0 mm 1 mps 689 mmHg 10%
    22:00 +35°C° 0 mm 1 mps 688 mmHg 11%
    23:00 +34°C° 0 mm 1 mps 688 mmHg 17%

    Tomorrow, 7 June, Sunday

    Time Temperature Precipitation Wind Pressure Humidity
    00:00 +33°C° 0 mm 1 mps 688 mmHg 23%
    01:00 +32°C° 0 mm 1 mps 687 mmHg 30%
    02:00 +31°C° 0 mm 1 mps 687 mmHg 33%
    03:00 +30°C° 0 mm 1 mps 687 mmHg 35%
    04:00 +30°C° 0 mm 1 mps 687 mmHg 38%
    05:00 +31°C° 0 mm 1 mps 688 mmHg 33%
    06:00 +33°C° 0 mm 1 mps 689 mmHg 28%
    07:00 +34°C° 0 mm 1 mps 690 mmHg 23%
    08:00 +36°C° 0 mm 1 mps 690 mmHg 19%
    09:00 +39°C° 0 mm 1 mps 690 mmHg 15%
    10:00 +41°C° 0 mm 1 mps 690 mmHg 11%
    11:00 +43°C° 0 mm 1 mps 690 mmHg 10%
    12:00 +45°C° 0 mm 2 mps 690 mmHg 8%
    13:00 +46°C° 0 mm 2 mps 690 mmHg 7%
    14:00 +46°C° 0 mm 3 mps 689 mmHg 7%
    15:00 +47°C° 0 mm 4 mps 689 mmHg 7%
    16:00 +47°C° 0 mm 6 mps 688 mmHg 7%
    17:00 +46°C° 0 mm 5 mps 688 mmHg 8%
    18:00 +43°C° 0 mm 5 mps 688 mmHg 10%
    19:00 +42°C° 0 mm 4 mps 688 mmHg 11%
    20:00 +39°C° 0 mm 3 mps 688 mmHg 21%
    21:00 +36°C° 0 mm 3 mps 688 mmHg 30%
    22:00 +34°C° 0 mm 2 mps 688 mmHg 40%
    23:00 +34°C° 0 mm 2 mps 688 mmHg 42%

    Day after tomorrow, 8 June, Monday

    Time Temperature Precipitation Wind Pressure Humidity
    00:00 +32°C° 0 mm 1 mps 688 mmHg 45%
    01:00 +31°C° 0 mm 1 mps 688 mmHg 47%
    02:00 +30°C° 0 mm 1 mps 688 mmHg 50%
    03:00 +29°C° 0 mm 1 mps 688 mmHg 53%
    04:00 +29°C° 0 mm 1 mps 688 mmHg 56%
    05:00 +30°C° 0 mm 1 mps 688 mmHg 51%
    06:00 +31°C° 0 mm 1 mps 689 mmHg 47%
    07:00 +30°C° 0 mm 0 mps 689 mmHg 42%
    08:00 +34°C° 0 mm 1 mps 690 mmHg 34%
    09:00 +36°C° 0 mm 1 mps 690 mmHg 26%
    10:00 +39°C° 0 mm 2 mps 690 mmHg 18%
    11:00 +41°C° 0 mm 2 mps 690 mmHg 15%
    12:00 +42°C° 0 mm 2 mps 690 mmHg 13%
    13:00 +45°C° 0 mm 2 mps 690 mmHg 10%
    14:00 +45°C° 0 mm 3 mps 690 mmHg 10%
    15:00 +45°C° 0 mm 4 mps 689 mmHg 10%
    16:00 +45°C° 0 mm 4 mps 689 mmHg 10%
    17:00 +44°C° 0 mm 4 mps 689 mmHg 12%
    18:00 +43°C° 0 mm 4 mps 689 mmHg 14%
    19:00 +40°C° 0 mm 3 mps 689 mmHg 16%
    20:00 +38°C° 0 mm 3 mps 689 mmHg 27%
    21:00 +35°C° 0 mm 3 mps 690 mmHg 39%
    22:00 +32°C° 0 mm 2 mps 690 mmHg 50%
    23:00 +31°C° 0 mm 2 mps 690 mmHg 53%

    9 June, Tuesday

    Time Temperature Precipitation Wind Pressure Humidity
    00:00 +31°C° 0 mm 2 mps 689 mmHg 56%
    01:00 +30°C° 0 mm 2 mps 689 mmHg 59%
    02:00 +29°C° 0 mm 2 mps 689 mmHg 60%
    03:00 +29°C° 0 mm 1 mps 689 mmHg 62%
    04:00 +28°C° 0 mm 1 mps 689 mmHg 63%
    05:00 +29°C° 0 mm 1 mps 689 mmHg 60%
    06:00 +30°C° 0 mm 1 mps 690 mmHg 56%
    07:00 +30°C° 0 mm 1 mps 690 mmHg 53%
    08:00 +32°C° 0 mm 1 mps 691 mmHg 43%
    09:00 +36°C° 0 mm 2 mps 691 mmHg 34%
    10:00 +38°C° 0 mm 2 mps 692 mmHg 25%
    11:00 +39°C° 0 mm 3 mps 692 mmHg 22%
    12:00 +42°C° 0 mm 3 mps 691 mmHg 19%
    13:00 +43°C° 0 mm 4 mps 691 mmHg 16%
    14:00 +43°C° 0 mm 4 mps 691 mmHg 16%
    15:00 +43°C° 0 mm 4 mps 690 mmHg 16%
    16:00 +43°C° 0 mm 3 mps 690 mmHg 16%
    17:00 +42°C° 0.2 mm 4 mps 690 mmHg 18%
    18:00 +40°C° 0.2 mm 4 mps 690 mmHg 20%
    19:00 +37°C° 0.2 mm 4 mps 690 mmHg 22%
    20:00 +36°C° 0 mm 4 mps 690 mmHg 29%
    21:00 +35°C° 0 mm 4 mps 690 mmHg 35%
    22:00 +33°C° 0 mm 3 mps 691 mmHg 42%
    23:00 +33°C° 0 mm 3 mps 690 mmHg 48%

    10 June, Wednesday

    Time Temperature Precipitation Wind Pressure Humidity
    00:00 +31°C° 0 mm 2 mps 690 mmHg 53%
    01:00 +30°C° 0 mm 1 mps 689 mmHg 59%
    02:00 +29°C° 0 mm 1 mps 689 mmHg 58%
    03:00 +29°C° 0 mm 1 mps 689 mmHg 57%
    04:00 +29°C° 0 mm 1 mps 689 mmHg 57%
    05:00 +30°C° 0 mm 1 mps 689 mmHg 54%
    06:00 +30°C° 0 mm 1 mps 690 mmHg 52%
    07:00 +31°C° 0 mm 1 mps 690 mmHg 50%
    08:00 +32°C° 0 mm 1 mps 691 mmHg 44%
    09:00 +35°C° 0 mm 2 mps 691 mmHg 38%
    10:00 +37°C° 0 mm 2 mps 691 mmHg 32%
    11:00 +39°C° 0 mm 3 mps 691 mmHg 27%
    12:00 +42°C° 0 mm 3 mps 691 mmHg 23%
    13:00 +43°C° 0 mm 3 mps 691 mmHg 19%
    14:00 +44°C° 0 mm 3 mps 690 mmHg 18%
    15:00 +44°C° 0 mm 3 mps 690 mmHg 16%
    16:00 +44°C° 0 mm 3 mps 690 mmHg 15%
    17:00 +42°C° 0 mm 3 mps 690 mmHg 19%
    18:00 +39°C° 0 mm 3 mps 689 mmHg 22%
    19:00 +37°C° 0 mm 3 mps 689 mmHg 25%
    20:00 +37°C° 0 mm 3 mps 690 mmHg 28%
    21:00 +36°C° 0 mm 3 mps 690 mmHg 31%
    22:00 +35°C° 0 mm 3 mps 690 mmHg 34%
    23:00 +34°C° 0 mm 2 mps 690 mmHg 41%

    11 June, Thursday

    Time Temperature Precipitation Wind Pressure Humidity
    00:00 +31°C° 0 mm 2 mps 689 mmHg 48%
    01:00 +30°C° 0 mm 2 mps 689 mmHg 55%
    02:00 +30°C° 0 mm 1 mps 689 mmHg 56%
    03:00 +29°C° 0 mm 1 mps 689 mmHg 57%
    04:00 +29°C° 0 mm 1 mps 688 mmHg 58%
    05:00 +30°C° 0 mm 1 mps 689 mmHg 55%
    06:00 +30°C° 0 mm 1 mps 689 mmHg 52%
    07:00 +29°C° 0 mm 0 mps 690 mmHg 49%
    08:00 +33°C° 0 mm 1 mps 690 mmHg 41%
    09:00 +35°C° 0 mm 1 mps 691 mmHg 34%
    10:00 +39°C° 0 mm 2 mps 691 mmHg 27%
    11:00 +40°C° 0 mm 2 mps 691 mmHg 23%
    12:00 +42°C° 0 mm 2 mps 690 mmHg 20%
    13:00 +44°C° 0 mm 3 mps 690 mmHg 16%
    14:00 +44°C° 0 mm 3 mps 690 mmHg 15%
    15:00 +45°C° 0 mm 4 mps 689 mmHg 14%
    16:00 +45°C° 0 mm 4 mps 689 mmHg 14%
    17:00 +44°C° 0 mm 3 mps 689 mmHg 15%
    18:00 +42°C° 0 mm 3 mps 688 mmHg 17%
    19:00 +40°C° 0 mm 2 mps 688 mmHg 18%
    20:00 +38°C° 0 mm 2 mps 689 mmHg 24%
    21:00 +37°C° 0 mm 2 mps 689 mmHg 30%
    22:00 +35°C° 0 mm 2 mps 689 mmHg 36%
    23:00 +34°C° 0 mm 2 mps 689 mmHg 41%
    Show more